This is the latest recevied weather packets stored in our database for station/object KC1TLF-15. If no packets are shown the sender has not sent any weather packets the latest 10 day(s).
| Time | Temp. | Humidity | Pressure | Rain* | Wind** | Luminosity | Snow |
|---|---|---|---|---|---|---|---|
| 1777624869 | 6.67° C | 87% | 1016.8 hPa | 0 mm | 0.89 m/s, 301° | 0 W/m² | - |
| 1777624270 | 6.67° C | 85% | 1016.8 hPa | 0 mm | 0.45 m/s, 302° | 0 W/m² | - |
| 1777623670 | 6.67° C | 85% | 1016.5 hPa | 0 mm | 0.89 m/s, 306° | 0 W/m² | - |
| 1777623070 | 6.67° C | 86% | 1016.5 hPa | 0 mm | 0.45 m/s, 316° | 0 W/m² | - |
| 1777622469 | 6.67° C | 87% | 1016.4 hPa | 0 mm | 0.89 m/s, 317° | 0 W/m² | - |
| 1777621871 | 7.22° C | 87% | 1016.5 hPa | 0 mm | 0 m/s | 0 W/m² | - |
| 1777621270 | 7.22° C | 85% | 1016.4 hPa | 0 mm | 0.89 m/s, 306° | 0 W/m² | - |
| 1777620670 | 7.78° C | 84% | 1016.4 hPa | 0 mm | 0.45 m/s, 302° | 0 W/m² | - |
| 1777620071 | 7.78° C | 83% | 1016.3 hPa | 0 mm | 1.34 m/s, 304° | 0 W/m² | - |
| 1777619470 | 7.78° C | 82% | 1016.6 hPa | 0 mm | 0.89 m/s, 333° | 0 W/m² | - |
| 1777618870 | 8.33° C | 81% | 1016.3 hPa | 0 mm | 0.89 m/s, 306° | 0 W/m² | - |
| 1777618269 | 8.33° C | 80% | 1016.3 hPa | 0 mm | 1.34 m/s, 320° | 0 W/m² | - |
| 1777617670 | 8.33° C | 82% | 1016.1 hPa | 0 mm | 0.89 m/s, 327° | 0 W/m² | - |
| 1777617070 | 8.33° C | 83% | 1016.1 hPa | 0 mm | 0.89 m/s, 331° | 0 W/m² | - |
| 1777616469 | 8.33° C | 83% | 1016.3 hPa | 0 mm | 0.89 m/s, 298° | 0 W/m² | - |
| 1777615869 | 8.89° C | 85% | 1016.3 hPa | 0 mm | 1.34 m/s, 331° | 0 W/m² | - |
| 1777615270 | 8.89° C | 85% | 1016.2 hPa | 0 mm | 2.24 m/s, 312° | 0 W/m² | - |
| 1777614671 | 8.89° C | 84% | 1015.9 hPa | 0 mm | 0.89 m/s, 310° | 0 W/m² | - |
| 1777614070 | 8.89° C | 84% | 1016 hPa | 0 mm | 0.89 m/s, 327° | 0 W/m² | - |
| 1777613469 | 9.44° C | 84% | 1016.1 hPa | 0 mm | 1.34 m/s, 345° | 0 W/m² | - |
| 1777612871 | 9.44° C | 86% | 1016 hPa | 0 mm | 1.34 m/s, 277° | 0 W/m² | - |
| 1777612271 | 9.44° C | 85% | 1015.9 hPa | 0 mm | 0.45 m/s, 323° | 0 W/m² | - |
| 1777611670 | 10° C | 86% | 1015.6 hPa | 0 mm | 0.89 m/s, 317° | 0 W/m² | - |
| 1777611070 | 10° C | 87% | 1015.5 hPa | 0 mm | 0.45 m/s, 325° | 0 W/m² | - |
| 1777610470 | 10° C | 91% | 1015.5 hPa | 0 mm | 0.45 m/s, 333° | 0 W/m² | - |
* Rain latest hour (hover to see other rain measurements)
** Current wind speed in m/s (hover to see current wind gust speed)